Regional Weather Roundup
Issued by NWS

Home | Current Version | Previous Version | Graphics & Text | Print | Product List | Glossary On
Versions: 1 2 3 4 5 6 7 8 9 10 11 12 13 14 15 16 17 18 19 20 21 22 23 24 25 26 27 28 29 30 31 32 33 34 35 36 37 38 39 40 41 42 43 44 45 46 47 48 49 50
000
ASUS43 KDMX 251203
RWRIA

WEATHER ROUNDUP FOR IOWA
NATIONAL WEATHER SERVICE DES MOINES IA
700 AM CDT MON JUL 25 2016

NOTE: "FAIR" INDICATES FEW OR NO CLOUDS BELOW 12,000 FEET WITH NO
SIGNIFICANT WEATHER AND/OR OBSTRUCTIONS TO VISIBILITY.

* - THESE STATIONS ARE NOT NWS STATIONS...THUS NOT UNDER NWS
QUALITY CONTROL.  THEY ALSO DO NOT REPORT WEATHER SUCH
AS PRECIPITATION OR FOG.

IAZ001>003-012>014-020>022-031>034-043>046-251300-
   NORTHWEST IOWA

CITY           SKY/WX    TMP DP  RH WIND       PRES   REMARKS
CARROLL *      CLEAR     63  63 100 NW3       30.11S
CHEROKEE *     CLEAR     60  60 100 CALM      30.13R
LE MARS *      PTCLDY    61  59  94 S6        30.13R
SHELDON *      FOG       57  57 100 CALM      30.11R VSB 3/4
SIOUX CITY     PTCLDY    63  61  93 CALM      30.12R
6HR MIN TEMP:  61; 6HR MAX TEMP:  69;

SPENCER        CLEAR     60  58  92 SW3       30.12R FOG
6HR MIN TEMP:  56; 6HR MAX TEMP:  64;

STORM LAKE *   CLEAR     63  61  94 W5        30.13R
$$

IAZ055>058-069>071-079>083-090>094-251300-
   SOUTHWEST IOWA

CITY           SKY/WX    TMP DP  RH WIND       PRES   REMARKS
ATLANTIC *     CLEAR     63  63 100 CALM      30.11R
CLARINDA *       N/A     66  64  94 MISG      30.12R
COUNCIL BLFS * PTCLDY    66  63  88 E5        30.11R
CRESTON *      CLEAR     66  64  94 NE6       30.11R
HARLAN  *      CLEAR     63  63 100 N5        30.14S
LAMONI         CLOUDY    64  63  96 N6        30.09R
6HR MIN TEMP:  64; 6HR MAX TEMP:  73;

RED OAK *      CLOUDY    64  63  94 CALM      30.10S
SHENANDOAH *   CLOUDY    66  66 100 NE3       30.10R
$$

IAZ047>049-059>061-072>074-084-251300-
   CENTRAL IOWA

CITY           SKY/WX    TMP DP  RH WIND       PRES   REMARKS
AMES           CLEAR     66  66 100 NW3       30.09R
6HR MIN TEMP:  63; 6HR MAX TEMP:  69;

ANKENY *         N/A    N/A N/A N/A MISG        N/A
BOONE *        CLEAR     66  63  88 N7        30.09S
CHARITON *       N/A    N/A N/A N/A MISG        N/A
DES MOINES     MOCLDY    72  64  76 N6        30.08R
6HR MIN TEMP:  70; 6HR MAX TEMP:  74;

GRINNELL*      CLEAR     65  63  93 NW5       30.08S
KNOXVILLE *    CLOUDY    70  63  78 N8        30.06S
MARSHALLTOWN   PTCLDY    64  64 100 NW5       30.08R
6HR MIN TEMP:  62; 6HR MAX TEMP:  66;

NEWTON *       CLEAR     68  66  94 N9        30.07S
PERRY *          N/A     64  64  98 NW3       30.10S
$$

IAZ004>006-015-016-023>025-035-036-251300-
   NORTH CENTRAL IOWA

CITY           SKY/WX    TMP DP  RH WIND       PRES   REMARKS
ALGONA *       CLEAR     63  61  94 CALM      30.11R
ESTHERVILLE    CLEAR     61  60  97 SW5       30.11R
6HR MIN TEMP:  59; 6HR MAX TEMP:  64;

FORT DODGE *   CLEAR     63  63 100 CALM      30.12R
MASON CITY     CLEAR     64  63  96 W5        30.11R
6HR MIN TEMP:  60; 6HR MAX TEMP:  66;

FOREST CITY *    N/A     59  59 100 CALM      30.10R FOG
IOWA FALLS *     N/A     64  62  94 W3        30.11R
$$

IAZ007>011-017>019-026>030-037>042-050>054-066-251300-
   NORTHEAST IOWA

CITY           SKY/WX    TMP DP  RH WIND       PRES   REMARKS
CEDAR RAPIDS   MOSUNNY   66  66 100 NW7       30.05R
6HR MIN TEMP:  63; 6HR MAX TEMP:  69;

CHARLES CITY * SUNNY     63  63 100 W5        30.09R FOG
CLINTON *      SUNNY     66  66 100 SW3       30.04R
DECORAH *      SUNNY     64  64 100 CALM      30.06R
DUBUQUE        SUNNY     67  64  90 CALM      30.05R
6HR MIN TEMP:  66; 6HR MAX TEMP:  71;

MONTICELLO *   SUNNY     66  64  94 CALM      30.05R
OELWEIN *      SUNNY     64  64 100 W5        30.08R
WATERLOO       SUNNY     66  63  90 W6        30.07R
6HR MIN TEMP:  63; 6HR MAX TEMP:  68;

$$

IAZ064-065-067-068-078-251300-
   EAST CENTRAL IOWA

CITY           SKY/WX    TMP DP  RH WIND       PRES   REMARKS
DAVENPORT      SUNNY     68  66  93 NW3       30.04R
6HR MIN TEMP:  67; 6HR MAX TEMP:  72;

IOWA CITY      MOSUNNY   68  66  93 CALM      30.07R
6HR MIN TEMP:  66; 6HR MAX TEMP:  75;

MT. PLEASANT *   N/A     72  71  97 N3        30.05R
MUSCATINE *    CLOUDY    70  66  88 NW3       30.05R
QUAD CITIES    CLOUDY    73  67  81 W3        30.03R
6HR MIN TEMP:  69; 6HR MAX TEMP:  78;

$$

IAZ062-063-075>077-085>089-095>099-251300-
   SOUTHEAST IOWA

CITY           SKY/WX    TMP DP  RH WIND       PRES   REMARKS
BURLINGTON     CLOUDY    71  69  93 N7        30.03R
6HR MIN TEMP:  69; 6HR MAX TEMP:  75;

FAIRFIELD *    CLOUDY    66  64  94 NW5       30.07R
KEOKUK *       CLOUDY    72  68  88 N7        30.02R
OSKALOOSA *      N/A     63  62  96 S5        30.09R
CENTERVILLE *    N/A     64  63  94 CALM      30.10R
OTTUMWA        MOCLDY    64  62  93 S3        30.08R
6HR MIN TEMP:  61; 6HR MAX TEMP:  71;

WASHINGTON *   CLOUDY    68  66  94 NW5       30.07R
$$

ABBREVIATIONS USED IN REMARKS
   TC - TEMPERATURES IN CELSIUS
  WCI - WIND CHILL INDEX
   HX - HEAT INDEX
  VSB - VISIBILITY
$$





USA.gov is the U.S. government's official web portal to all federal, state and local government web resources and services.